SCP
0 0 0 0 0 0 0 0 0 0 0 0 0 0 0 0 0 0 0 0 0 0 0 0 0 0 0 0 0 0 0 0 0 -0 0 0 0 0 0 0 0 -0 0 0 0 0 -0 0 0 0 0 0 0 0
0 0 0 0 0 0 0 0 0 0 0 0 0 0 0 0 0 0 0 0 0 0 0 0 0 -0 -0 -0 0 0 0 0 -0 -0 0 0 0 0 0 0 0 0 0 0 0 0 0 -0 0 0 0 0 0 0
0 0 0 0 0 0 0 0 0 0 0 0 0 0 0 0 0 0 0 0 0 0 0 0 0 0 0 -0 0 0 0 0 0 -0 0 0 0 0 0 0 0 0 0 0 0 0 0 0 0 0 0 0 0 0
0 0 0 0 0 0 0 0 0 0 0 -0 0 0 0 0 0 0 0 0 0 0 0 0 0 0 -0 0 0 -0 0 0 0 0 0 0 -0 0 0 0 -0 -0 0 -0 0 -0 -0 0 0 0 0 0 0 0
0 0 0 0 0 0 0 0 0 0 0 0 0 0 0 0 0 0 0 0 0 0 0 0 0 0 -0 0 -0 -0 0 0 0 -0 -0 -0 -0 0 0 0 -0 -0 0 0 0 0 0 0 0 0 0 0 0 0
0 0 0 0 0 0 0 0 0 0 0 0 0 0 0 0 0 0 0 0 0 0 0 0 0 0 0 0 0 -0 0 0 0 0 0 0 -0 0 0 0 0 0 0 -0 0 0 0 0 -0 -0 0 0 0 0
0 0 0 0 0 0 0 0 0 0 0 0 0 0 0 0 0 0 0 0 0 0 0 0 0 -0 0 0 0 0 0 0 0 0 0 0 0 0 0 -0 0 0 0 0 0 0 0 0 -0 -0 0 0 0 0
0 0 0 0 0 0 0 0 0 0 0 0 0 0 0 0 0 0 0 0 -0 0 0 0 0 0 0 0 0 0 0 0 0 0 0 0 0 0 -0 0 -0 -0 -0 0 0 0 0 -0 -0 0 0 0 0 0
0 0 0 0 0 0 0 0 0 0 0 0 0 0 0 0 0 0 0 0 0 0 0 0 0 0 0 0 0 0 0 0 0 0 0 0 0 -0 -0 -0 -0 0 -0 -0 0 0 0 -0 -0 0 -0 0 0 0
0 0 0 0 0 0 0 0 0 0 0 0 0 0 0 0 -0 -0 0 0 0 0 0 0 0 0 0 0 0 0 0 0 0 0 0 0 0 0 0 0 -0 0 0 -0 0 0 0 -0 -0 -0 -0 -0 -0 -0
0 0 0 0 0 0 0 0 0 0 0 0 0 0 0 0 0 0 0 0 0 0 -0 0 0 0 0 0 0 0 0 0 0 0 0 -0 0 0 0 -0 0 -0 0 0 -0 -0 -0 -0 -0 -0 -0 -0 0 -0
0 0 0 0 0 0 0 0 0 0 0 0 0 0 0 0 0 0 0 0 0 0 0 0 0 0 0 0 0 0 0 0 0 0 0 -0 0 -0 0 0 -0 -0 -0 -0 -0 -0 -0 0 0 -0 -0 -0 0 0
0 0 0 0 0 0 0 0 0 0 0 0 0 0 0 0 0 0 0 0 0 0 0 0 0 0 0 0 0 0 0 0 0 0 0 0 -0 -0 0 -0 0 0 -0 -0 -0 -0 -0 0 0 0 0 0 0 0
0 0 0 0 0 0 0 0 0 0 0 0 0 0 0 0 0 0 0 0 0 0 0 0 0 0 0 0 0 0 0 0 0 0 0 0 -0 0 0 0 -0 -0 0 -0 -0 -0 -0 -0 -0 -0 -0 0 0 0
0 0 0 0 0 0 0 0 0 0 0 0 0 0 0 0 0 0 0 0 0 0 0 0 0 0 0 0 0 0 0 0 0 0 0 0 0 0 0 0 0 0 -0 -0 -0 -0 -0 0 -0 -0 -0 -0 -0 0
0 0 0 0 0 0 0 0 0 0 0 0 0 0 0 0 0 0 0 0 0 0 0 0 0 0 0 0 0 0 0 0 0 0 0 0 0 0 0 -0 -0 0 0 -0 -0 -0 -0 0 0 0 -0 -0 -0 -0
0 0 0 0 0 0 0 0 0 0 0 0 0 0 0 0 0 0 0 0 0 0 0 0 0 0 0 0 0 0 0 0 0 -0 0 0 0 0 -0 0 0 0 0 -0 0 0 0 0 0 0 0 -0 -0 -0
0 0 0 0 0 0 0 0 0 0 0 0 0 0 0 0 0 0 0 0 0 0 0 0 0 0 0 0 0 0 0 0 0 0 0 0 -0 -0 0 0 0 0 0 0 0 0 0 0 0 0 0 -0 -0 0
0 0 0 0 0 0 0 0 0 0 0 0 0 0 0 0 0 0 0 0 0 0 0 0 0 0 0 0 0 0 0 0 0 0 0 0 0 0 0 0 0 0 0 0 0 0 0 0 -0 -0 -0 -0 0 -0
0 0 0 0 0 0 0 0 0 0 0 0 0 0 0 0 0 0 0 0 0 0 0 0 0 0 0 0 0 0 0 0 0 0 0 0 0 0 0 0 0 0 0 0 0 0 0 0 0 0 0 -0 0 0
0 0 0 0 0 0 0 0 0 0 0 0 0 0 0 0 0 0 0 0 0 0 0 0 0 0 0 -0 0 0 0 0 0 0 0 0 0 0 0 0 0 0 -0 0 0 0 0 0 0 0 0 0 0 0
0 0 0 0 0 0 0 0 0 0 0 0 0 0 0 0 0 0 0 0 0 0 0 0 0 0 0 0 0 0 0 0 0 0 0 0 0 0 0 0 0 0 0 0 0 0 0 0 0 0 0 0 0 0
0 0 0 0 0 0 0 0 0 0 0 0 0 0 0 0 0 0 0 0 0 0 0 0 0 0 0 0 0 0 0 0 0 0 0 0 0 0 0 0 0 0 0 0 0 0 0 0 0 0 0 0 0 0
0 0 0 0 0 0 0 0 0 0 0 0 0 0 0 0 0 0 0 0 0 0 0 0 0 0 0 0 0 0 0 0 0 0 0 0 0 0 0 0 0 0 0 0 0 0 0 0 0 0 0 0 0 0
0 0 0 0 0 0 0 0 0 -0 0 0 0 0 0 0 0 0 0 0 0 0 0 0 0 0 0 0 0 0 0 0 0 0 0 0 0 0 0 0 0 0 0 0 0 0 0 0 -0 -0 0 0 0 0
0 0 0 0 0 0 0 -0 -0 -0 0 0 0 0 0 0 -0 -0 0 0 0 0 0 0 0 0 0 0 0 0 0 0 0 0 0 0 0 0 0 0 0 0 0 0 0 0 0 0 0 0 0 0 0 0
0 0 0 0 0 0 0 0 0 -0 -0 0 0 0 0 0 -0 0 0 0 0 0 0 0 0 0 0 0 0 0 0 0 0 0 0 0 0 0 0 0 0 0 0 0 0 0 0 0 0 0 0 0 0 0
0 0 0 0 0 0 0 0 0 0 -0 0 0 0 0 -0 -0 0 0 0 -0 -0 0 0 0 0 0 0 0 0 0 0 0 0 0 0 0 0 0 0 0 0 0 0 0 0 0 0 0 0 0 0 0 0
0 0 0 0 0 0 0 0 0 0 -0 0 0 0 0 -0 -0 0 0 0 0 0 0 0 0 0 0 0 0 0 0 0 0 0 0 0 0 0 0 0 0 0 0 0 0 0 0 0 0 0 0 0 0 0
0 0 0 0 0 0 0 0 0 0 0 -0 -0 0 0 0 -0 -0 0 0 0 0 0 -0 -0 0 0 0 0 0 0 0 0 0 0 0 0 0 0 0 0 0 0 0 0 0 0 0 0 0 0 0 0 0
0 0 0 0 0 0 0 0 0 0 0 -0 0 0 0 0 0 0 0 0 0 0 0 0 0 0 0 0 0 0 0 0 0 0 0 0 0 0 0 0 0 0 0 0 0 0 0 0 0 0 0 0 0 0
0 0 0 0 0 0 0 0 0 0 0 0 0 0 0 0 0 0 0 0 0 0 0 0 0 0 0 0 0 0 0 0 0 0 0 0 0 0 0 0 0 0 0 0 0 0 0 0 0 0 0 0 0 0
0 0 0 0 0 0 0 0 0 0 0 0 0 -0 -0 0 0 0 0 0 0 0 0 0 0 0 0 0 0 0 0 0 0 0 0 0 0 0 0 0 0 0 0 0 0 0 0 0 0 0 0 0 0 0
Wind_Speed_500mb
60 51 52 56 57 61 63 64 63 60 60 60 54 46 40 25 25 25 32 29 25 17 53 53 26 22 22 20 6 19 18 11 9 10 6 6 5 7 8 6 13 5 6 3 6 9 7 24 28 5 11 19 21 39
53 57 57 61 65 65 63 62 61 58 52 55 50 40 34 29 27 24 36 36 31 33 60 84 81 79 76 60 39 12 8 4 4 5 4 6 5 6 9 6 5 5 5 5 4 4 6 31 38 25 18 17 16 34
55 57 61 65 68 67 63 58 58 56 56 51 45 35 35 34 25 28 38 38 42 31 56 26 18 2 10 23 17 16 9 8 7 2 4 5 8 3 5 4 7 6 7 5 9 6 9 24 33 48 58 55 56 48
60 62 65 67 65 62 58 58 57 52 50 50 47 38 32 31 34 34 40 41 42 18 11 17 8 47 41 44 34 36 31 19 9 6 7 5 7 8 4 7 4 4 11 13 8 11 23 27 43 45 57 61 69 28
63 65 65 64 60 58 57 57 53 51 47 45 44 35 32 32 28 34 45 48 44 31 10 26 52 6 20 24 23 39 44 24 11 7 6 6 8 7 4 5 4 5 7 6 5 29 15 29 35 29 34 52 61 37
61 60 59 57 54 53 53 53 51 48 46 47 44 33 32 31 26 27 13 4 3 35 8 8 25 15 21 4 22 35 43 26 8 8 9 9 11 4 3 5 6 19 25 21 8 41 37 29 11 18 29 31 39 40
55 52 53 53 52 51 51 50 51 51 46 44 39 35 31 28 22 19 6 3 2 22 8 10 13 9 19 10 17 31 37 20 11 7 8 7 6 8 3 4 14 37 33 28 30 28 16 25 12 21 19 30 47 59
50 51 51 49 48 49 51 52 50 46 43 42 33 29 29 28 30 29 7 33 29 18 11 4 8 14 11 9 11 21 16 16 12 8 8 5 2 1 4 14 27 30 25 19 34 24 20 23 34 40 37 42 50 58
48 48 48 47 47 49 49 48 49 46 40 34 27 18 6 2 5 9 15 18 39 21 6 6 3 7 2 6 12 14 16 5 7 4 6 2 2 4 10 10 17 20 23 31 28 28 26 34 40 46 48 47 47 48
46 45 44 43 44 44 45 45 45 41 36 26 14 4 3 2 9 9 3 3 11 9 10 7 14 7 11 4 6 0 6 4 5 6 6 3 6 9 9 13 17 23 23 29 24 31 34 34 34 33 40 34 33 39
43 41 40 41 40 39 36 35 42 46 34 23 18 8 10 9 8 4 6 10 9 6 11 13 29 12 12 6 7 4 3 1 2 3 3 4 6 7 12 7 4 10 8 14 17 18 22 31 33 38 39 38 32 32
39 38 38 38 36 34 30 29 38 46 42 38 26 22 12 4 4 3 5 7 9 8 10 9 15 25 9 14 2 2 3 4 5 8 2 4 7 19 14 10 6 4 8 10 13 14 22 29 36 43 44 40 37 22
36 36 36 35 31 31 30 37 43 43 38 8 5 6 5 5 3 8 8 7 5 6 4 9 8 13 12 13 3 5 4 7 4 5 6 7 7 24 23 17 15 15 13 11 13 14 18 23 25 38 46 36 36 38
33 33 32 31 27 31 37 41 41 35 13 5 6 7 8 9 9 9 7 3 15 23 49 33 7 12 8 5 4 5 6 4 5 3 8 5 21 24 26 19 18 17 16 15 13 13 16 19 19 30 42 45 39 41
35 30 30 27 31 38 48 45 35 27 8 8 8 10 13 23 19 15 19 20 28 33 31 15 5 9 3 5 4 3 1 4 9 8 6 14 28 24 19 12 12 22 15 15 15 16 18 17 15 22 32 39 41 46
37 32 15 26 38 44 40 39 26 9 8 10 14 10 19 9 11 7 14 30 33 29 28 9 4 2 9 7 5 11 10 10 8 7 13 30 30 25 26 14 15 20 15 15 18 14 17 13 12 15 22 31 37 42
36 23 32 33 36 40 35 22 8 11 11 10 15 26 41 39 27 34 29 40 46 26 5 7 3 3 5 5 4 8 9 7 14 20 15 29 35 32 30 27 26 27 18 19 19 17 12 15 16 14 15 21 26 34
36 35 34 32 29 41 29 7 10 11 16 23 13 20 24 34 46 44 51 49 29 9 8 7 8 5 7 7 7 8 19 11 10 11 6 22 19 16 25 29 23 34 33 24 13 15 9 11 7 11 12 16 21 28
37 40 35 28 18 25 11 7 11 10 18 26 33 40 40 44 49 39 46 48 46 41 12 10 8 7 8 10 10 15 19 23 18 23 21 15 31 25 25 27 28 39 40 33 26 19 9 2 7 13 14 15 21 25
36 35 24 8 13 9 9 11 12 15 12 11 27 35 38 33 45 43 39 44 32 10 11 8 8 18 16 31 41 34 25 27 23 17 20 23 34 43 30 28 36 47 43 38 36 32 23 14 10 9 11 15 16 22
36 21 31 28 28 22 13 12 14 15 17 13 25 24 28 49 44 42 37 20 9 8 5 16 25 35 45 41 33 47 33 32 34 28 21 23 26 37 38 28 44 44 45 46 48 47 34 21 17 17 10 11 13 15
34 28 33 20 10 9 15 20 16 20 17 27 42 15 14 13 12 16 28 8 7 11 23 33 37 38 39 38 43 43 38 39 40 42 33 31 35 41 47 43 42 44 46 42 55 53 43 32 24 18 14 10 10 10
27 26 12 9 9 9 16 14 11 8 5 11 16 10 7 11 12 16 7 5 12 30 38 40 41 35 29 27 33 40 42 30 36 40 33 33 38 38 43 44 52 48 44 48 58 49 48 41 35 31 24 13 10 9
23 8 5 7 8 9 11 9 8 10 10 9 8 10 6 7 13 5 2 10 28 42 43 44 44 44 30 23 22 20 23 28 35 39 34 30 42 41 36 33 38 43 46 50 47 54 53 49 45 43 34 23 16 14
8 6 4 8 9 6 7 8 11 7 7 16 7 7 6 8 3 5 5 10 31 48 51 41 38 35 33 30 22 10 10 22 31 36 41 40 32 32 46 32 32 41 44 48 56 57 61 53 53 50 40 30 22 20
2 8 11 8 8 5 3 5 5 3 14 7 7 13 16 5 4 6 5 26 35 44 56 58 46 35 32 21 19 24 11 13 21 39 42 38 37 37 52 43 37 42 45 53 49 57 62 56 56 52 45 33 28 25
6 10 12 14 15 19 12 13 23 8 7 6 5 8 6 8 7 7 17 42 40 44 43 51 49 40 35 24 16 18 12 8 14 19 29 31 31 41 43 36 39 43 49 49 51 62 67 62 58 50 44 38 34 29
12 11 8 15 16 18 7 5 5 5 5 3 10 4 3 5 9 22 25 43 38 32 38 51 44 38 45 53 40 31 25 30 24 20 31 34 33 32 32 32 30 27 41 39 46 59 59 58 54 51 48 44 38 33
13 15 19 26 16 11 8 8 8 10 12 7 1 4 6 11 26 28 32 28 34 35 38 43 44 39 38 44 51 47 37 42 37 38 36 28 16 10 9 22 23 23 32 54 50 60 69 59 56 52 49 41 38 36
10 9 9 9 6 6 10 17 16 18 22 21 18 10 6 15 46 45 35 30 30 36 36 38 37 43 45 44 51 53 52 47 46 40 35 34 26 22 16 14 17 24 31 41 54 59 56 69 71 64 54 46 43 39
18 10 9 10 10 21 33 29 30 31 34 34 23 14 14 15 22 55 49 38 31 30 30 32 33 38 41 43 42 38 41 41 39 36 31 22 16 17 21 23 25 21 28 38 54 61 63 63 73 67 59 52 43 35
9 11 7 6 12 32 28 5 4 3 12 15 18 10 15 11 13 31 54 38 39 40 35 30 28 27 24 26 28 31 31 28 29 26 27 29 24 23 20 14 12 10 14 26 40 52 60 65 61 61 61 52 45 38
15 17 8 9 9 7 11 14 3 10 15 10 19 23 20 11 10 28 36 40 34 31 29 29 27 23 22 23 24 25 30 30 27 27 28 28 28 28 30 28 20 11 6 13 24 25 25 30 45 49 47 39 32 26
Wind_Direction_500mb
314 318 318 320 320 321 319 317 316 317 321 324 322 322 318 292 296 299 291 291 273 252 282 277 275 245 261 259 267 309 339 4 337 23 354 316 297 321 298 294 329 320 293 247 200 226 266 356 328 259 319 310 322 338
314 320 317 318 318 319 317 316 316 318 324 321 320 323 316 301 301 296 288 292 292 260 273 295 286 274 264 267 263 274 271 272 317 327 3 299 293 292 295 308 340 323 316 288 311 270 278 293 245 291 324 324 337 312
314 312 313 314 315 316 318 318 317 320 325 316 316 319 315 311 302 281 288 288 290 286 304 286 292 285 215 311 272 227 245 230 205 249 304 290 282 272 299 299 292 275 332 322 310 330 280 294 4 358 13 350 339 332
311 312 314 314 315 316 317 316 319 324 318 316 315 310 307 301 293 285 281 284 280 274 278 284 311 298 286 266 256 242 247 261 253 233 225 255 271 226 264 282 285 267 314 322 303 307 331 355 4 1 343 348 351 16
311 314 315 315 315 315 316 319 321 320 318 315 314 312 307 306 298 290 286 286 268 225 292 292 309 342 338 244 254 220 223 239 212 183 214 240 250 255 278 290 266 3 312 343 312 310 330 323 326 2 351 353 349 30
313 316 316 316 318 319 321 320 320 320 321 318 315 303 295 299 304 309 319 337 264 202 277 291 317 301 340 277 207 221 220 235 239 223 237 255 250 257 354 281 268 313 313 315 286 318 316 318 348 36 8 353 24 38
313 316 316 318 319 320 321 323 323 324 325 320 314 305 295 287 274 247 250 253 137 171 254 289 302 293 317 206 213 218 228 242 251 264 242 246 272 193 204 266 290 317 322 335 353 354 338 7 11 31 13 27 36 51
317 319 321 323 323 324 325 325 325 327 327 322 314 303 292 280 270 275 337 219 176 221 253 284 279 316 197 193 217 208 206 221 238 256 273 241 263 199 263 264 303 330 341 345 360 1 12 27 24 24 31 38 47 42
317 319 322 323 326 327 328 330 329 331 331 325 319 318 311 88 179 286 299 216 213 209 257 231 267 269 304 3 271 189 192 193 231 241 251 182 298 216 234 269 306 340 355 333 348 18 27 32 26 23 31 33 44 46
317 319 321 324 327 329 331 333 333 337 342 335 330 303 168 119 310 291 255 209 194 225 242 246 210 267 309 310 290 60 190 200 208 239 293 88 259 249 259 281 302 313 322 343 352 16 17 24 32 42 50 42 43 47
315 318 321 324 328 327 339 345 342 349 354 1 351 318 317 291 308 255 232 189 200 243 228 237 215 213 239 190 229 229 202 243 332 251 226 293 288 237 201 185 299 338 343 13 15 23 40 48 43 40 36 36 38 41
312 318 321 323 324 326 336 327 337 337 335 321 301 304 309 284 237 259 239 196 195 231 214 206 225 205 240 216 168 318 146 38 251 339 287 271 256 181 195 186 203 84 83 74 36 49 46 55 49 48 42 36 31 31
313 316 318 321 316 323 329 333 333 327 326 338 276 255 241 224 243 218 220 254 236 222 241 259 244 210 186 205 120 84 88 235 334 51 234 236 230 183 188 178 175 168 118 112 80 51 49 42 35 42 46 44 46 48
312 315 316 315 314 311 327 332 334 334 331 292 252 251 207 208 234 208 206 229 321 304 297 293 242 216 176 145 148 132 231 77 22 2 240 250 197 190 188 174 169 179 153 134 127 104 71 51 54 49 46 41 48 53
313 317 308 299 303 316 322 322 323 312 275 251 248 242 227 229 236 245 268 275 302 324 345 303 234 208 236 155 200 123 69 258 199 232 232 197 169 174 201 179 159 169 162 170 151 121 110 96 92 70 53 49 58 60
319 331 317 309 310 308 315 313 314 264 241 240 236 259 261 287 276 281 303 308 329 326 338 304 244 160 222 158 127 215 151 220 246 219 235 175 172 164 213 199 188 186 175 159 169 136 126 130 110 87 57 50 61 64
315 322 324 324 314 313 322 304 231 230 240 235 246 245 259 278 269 282 300 301 314 319 203 187 232 272 340 169 199 182 206 214 203 199 186 196 207 233 222 216 201 191 197 186 156 149 138 153 132 102 73 66 62 63
307 320 328 331 327 334 334 218 246 243 242 248 246 270 271 275 287 293 297 303 294 268 262 237 186 171 226 215 245 232 216 210 197 183 222 213 204 207 210 203 185 181 204 190 194 167 144 158 140 96 87 87 82 72
315 317 325 323 319 323 295 253 238 263 253 269 276 278 283 287 294 299 302 304 298 283 249 216 215 192 229 242 247 226 209 193 204 224 190 208 226 231 214 215 217 195 193 184 195 184 164 70 84 110 104 115 102 82
315 323 315 310 297 298 270 258 246 265 262 267 279 283 294 289 302 302 304 302 301 271 224 217 196 226 230 253 278 280 240 234 237 217 219 223 231 230 214 201 202 194 199 191 195 191 187 176 152 133 108 96 103 99
320 330 303 305 299 243 260 271 248 247 272 267 278 326 313 294 289 291 300 341 251 223 227 262 268 284 286 269 258 275 269 254 243 225 243 230 222 207 200 230 210 202 200 194 194 199 198 196 177 160 133 111 109 107
320 320 319 328 246 242 254 247 251 296 306 284 293 287 257 289 308 306 317 264 221 43 3 340 327 310 302 297 284 262 267 260 257 236 239 236 223 207 215 208 201 204 212 211 200 199 198 194 188 185 176 156 149 132
328 319 292 248 248 244 263 264 248 258 280 302 310 319 279 289 271 289 261 345 54 352 344 341 335 333 331 307 287 272 272 253 227 221 224 221 213 225 227 219 212 222 208 213 208 200 194 191 191 190 192 190 182 176
321 266 255 278 243 268 292 275 288 275 323 354 319 293 286 272 294 257 240 50 350 349 346 346 354 345 337 347 338 290 262 225 225 229 243 226 211 218 223 228 221 210 213 210 209 202 194 195 196 194 194 191 189 193
287 248 210 269 261 260 264 336 26 4 277 305 266 262 272 274 298 14 72 338 347 356 356 350 346 353 350 353 354 319 255 244 239 240 236 223 221 222 215 213 215 215 207 209 200 196 194 197 196 195 195 197 197 196
265 231 194 236 260 224 308 328 294 308 316 282 274 299 338 333 261 62 17 343 339 342 355 3 350 344 344 349 4 350 288 236 231 226 230 237 234 220 196 195 195 201 193 195 194 205 199 199 193 195 197 198 203 202
265 278 241 242 266 290 297 287 291 258 254 264 314 353 319 324 353 43 4 0 353 356 355 13 17 29 24 5 20 34 30 152 187 194 193 191 195 204 204 212 212 217 209 203 207 212 204 200 196 199 199 204 209 210
253 277 245 283 295 278 264 248 259 246 255 292 322 290 276 308 35 348 348 355 3 11 11 17 32 34 31 30 34 46 86 86 101 146 166 175 187 198 210 212 219 232 225 218 209 211 209 212 203 199 204 207 204 204
252 251 283 277 272 254 237 218 228 233 262 297 40 312 25 59 10 8 4 6 20 29 25 30 28 29 39 47 42 46 46 54 74 83 86 82 116 110 209 226 226 220 212 214 224 219 208 217 210 211 211 208 198 193
264 275 262 262 246 246 235 215 244 238 265 273 271 269 97 89 38 31 30 30 28 30 34 34 28 29 29 36 48 53 53 49 45 47 54 48 31 358 333 305 271 248 227 214 216 211 219 214 206 201 198 196 190 187
286 288 257 247 266 270 290 299 291 279 276 277 287 260 175 153 44 28 31 37 41 34 35 39 39 34 34 36 36 39 38 37 40 39 38 32 10 360 2 343 309 287 233 212 198 206 214 216 204 192 193 191 187 187
246 233 272 281 286 314 324 5 341 45 53 64 32 92 101 85 49 22 23 40 44 44 43 47 53 59 53 50 50 53 47 37 34 35 46 54 45 32 16 1 339 305 226 213 219 211 201 191 189 193 185 182 182 182
275 288 268 272 285 305 313 303 212 101 64 61 32 43 58 71 75 19 18 34 38 35 40 47 53 55 50 50 57 67 64 60 53 50 47 47 47 47 55 62 64 73 97 176 197 213 228 204 183 180 174 170 168 167
Wind_Speed_850mb
60 51 52 56 57 61 63 64 63 60 60 60 54 46 40 25 25 25 32 29 25 17 53 53 26 22 22 20 6 19 18 11 9 10 6 6 5 7 8 6 13 5 6 3 6 9 7 24 28 5 11 19 21 39
53 57 57 61 65 65 63 62 61 58 52 55 50 40 34 29 27 24 36 36 31 33 60 84 81 79 76 60 39 12 8 4 4 5 4 6 5 6 9 6 5 5 5 5 4 4 6 31 38 25 18 17 16 34
55 57 61 65 68 67 63 58 58 56 56 51 45 35 35 34 25 28 38 38 42 31 56 26 18 2 10 23 17 16 9 8 7 2 4 5 8 3 5 4 7 6 7 5 9 6 9 24 33 48 58 55 56 48
60 62 65 67 65 62 58 58 57 52 50 50 47 38 32 31 34 34 40 41 42 18 11 17 8 47 41 44 34 36 31 19 9 6 7 5 7 8 4 7 4 4 11 13 8 11 23 27 43 45 57 61 69 28
63 65 65 64 60 58 57 57 53 51 47 45 44 35 32 32 28 34 45 48 44 31 10 26 52 6 20 24 23 39 44 24 11 7 6 6 8 7 4 5 4 5 7 6 5 29 15 29 35 29 34 52 61 37
61 60 59 57 54 53 53 53 51 48 46 47 44 33 32 31 26 27 13 4 3 35 8 8 25 15 21 4 22 35 43 26 8 8 9 9 11 4 3 5 6 19 25 21 8 41 37 29 11 18 29 31 39 40
55 52 53 53 52 51 51 50 51 51 46 44 39 35 31 28 22 19 6 3 2 22 8 10 13 9 19 10 17 31 37 20 11 7 8 7 6 8 3 4 14 37 33 28 30 28 16 25 12 21 19 30 47 59
50 51 51 49 48 49 51 52 50 46 43 42 33 29 29 28 30 29 7 33 29 18 11 4 8 14 11 9 11 21 16 16 12 8 8 5 2 1 4 14 27 30 25 19 34 24 20 23 34 40 37 42 50 58
48 48 48 47 47 49 49 48 49 46 40 34 27 18 6 2 5 9 15 18 39 21 6 6 3 7 2 6 12 14 16 5 7 4 6 2 2 4 10 10 17 20 23 31 28 28 26 34 40 46 48 47 47 48
46 45 44 43 44 44 45 45 45 41 36 26 14 4 3 2 9 9 3 3 11 9 10 7 14 7 11 4 6 0 6 4 5 6 6 3 6 9 9 13 17 23 23 29 24 31 34 34 34 33 40 34 33 39
43 41 40 41 40 39 36 35 42 46 34 23 18 8 10 9 8 4 6 10 9 6 11 13 29 12 12 6 7 4 3 1 2 3 3 4 6 7 12 7 4 10 8 14 17 18 22 31 33 38 39 38 32 32
39 38 38 38 36 34 30 29 38 46 42 38 26 22 12 4 4 3 5 7 9 8 10 9 15 25 9 14 2 2 3 4 5 8 2 4 7 19 14 10 6 4 8 10 13 14 22 29 36 43 44 40 37 22
36 36 36 35 31 31 30 37 43 43 38 8 5 6 5 5 3 8 8 7 5 6 4 9 8 13 12 13 3 5 4 7 4 5 6 7 7 24 23 17 15 15 13 11 13 14 18 23 25 38 46 36 36 38
33 33 32 31 27 31 37 41 41 35 13 5 6 7 8 9 9 9 7 3 15 23 49 33 7 12 8 5 4 5 6 4 5 3 8 5 21 24 26 19 18 17 16 15 13 13 16 19 19 30 42 45 39 41
35 30 30 27 31 38 48 45 35 27 8 8 8 10 13 23 19 15 19 20 28 33 31 15 5 9 3 5 4 3 1 4 9 8 6 14 28 24 19 12 12 22 15 15 15 16 18 17 15 22 32 39 41 46
37 32 15 26 38 44 40 39 26 9 8 10 14 10 19 9 11 7 14 30 33 29 28 9 4 2 9 7 5 11 10 10 8 7 13 30 30 25 26 14 15 20 15 15 18 14 17 13 12 15 22 31 37 42
36 23 32 33 36 40 35 22 8 11 11 10 15 26 41 39 27 34 29 40 46 26 5 7 3 3 5 5 4 8 9 7 14 20 15 29 35 32 30 27 26 27 18 19 19 17 12 15 16 14 15 21 26 34
36 35 34 32 29 41 29 7 10 11 16 23 13 20 24 34 46 44 51 49 29 9 8 7 8 5 7 7 7 8 19 11 10 11 6 22 19 16 25 29 23 34 33 24 13 15 9 11 7 11 12 16 21 28
37 40 35 28 18 25 11 7 11 10 18 26 33 40 40 44 49 39 46 48 46 41 12 10 8 7 8 10 10 15 19 23 18 23 21 15 31 25 25 27 28 39 40 33 26 19 9 2 7 13 14 15 21 25
36 35 24 8 13 9 9 11 12 15 12 11 27 35 38 33 45 43 39 44 32 10 11 8 8 18 16 31 41 34 25 27 23 17 20 23 34 43 30 28 36 47 43 38 36 32 23 14 10 9 11 15 16 22
36 21 31 28 28 22 13 12 14 15 17 13 25 24 28 49 44 42 37 20 9 8 5 16 25 35 45 41 33 47 33 32 34 28 21 23 26 37 38 28 44 44 45 46 48 47 34 21 17 17 10 11 13 15
34 28 33 20 10 9 15 20 16 20 17 27 42 15 14 13 12 16 28 8 7 11 23 33 37 38 39 38 43 43 38 39 40 42 33 31 35 41 47 43 42 44 46 42 55 53 43 32 24 18 14 10 10 10
27 26 12 9 9 9 16 14 11 8 5 11 16 10 7 11 12 16 7 5 12 30 38 40 41 35 29 27 33 40 42 30 36 40 33 33 38 38 43 44 52 48 44 48 58 49 48 41 35 31 24 13 10 9
23 8 5 7 8 9 11 9 8 10 10 9 8 10 6 7 13 5 2 10 28 42 43 44 44 44 30 23 22 20 23 28 35 39 34 30 42 41 36 33 38 43 46 50 47 54 53 49 45 43 34 23 16 14
8 6 4 8 9 6 7 8 11 7 7 16 7 7 6 8 3 5 5 10 31 48 51 41 38 35 33 30 22 10 10 22 31 36 41 40 32 32 46 32 32 41 44 48 56 57 61 53 53 50 40 30 22 20
2 8 11 8 8 5 3 5 5 3 14 7 7 13 16 5 4 6 5 26 35 44 56 58 46 35 32 21 19 24 11 13 21 39 42 38 37 37 52 43 37 42 45 53 49 57 62 56 56 52 45 33 28 25
6 10 12 14 15 19 12 13 23 8 7 6 5 8 6 8 7 7 17 42 40 44 43 51 49 40 35 24 16 18 12 8 14 19 29 31 31 41 43 36 39 43 49 49 51 62 67 62 58 50 44 38 34 29
12 11 8 15 16 18 7 5 5 5 5 3 10 4 3 5 9 22 25 43 38 32 38 51 44 38 45 53 40 31 25 30 24 20 31 34 33 32 32 32 30 27 41 39 46 59 59 58 54 51 48 44 38 33
13 15 19 26 16 11 8 8 8 10 12 7 1 4 6 11 26 28 32 28 34 35 38 43 44 39 38 44 51 47 37 42 37 38 36 28 16 10 9 22 23 23 32 54 50 60 69 59 56 52 49 41 38 36
10 9 9 9 6 6 10 17 16 18 22 21 18 10 6 15 46 45 35 30 30 36 36 38 37 43 45 44 51 53 52 47 46 40 35 34 26 22 16 14 17 24 31 41 54 59 56 69 71 64 54 46 43 39
18 10 9 10 10 21 33 29 30 31 34 34 23 14 14 15 22 55 49 38 31 30 30 32 33 38 41 43 42 38 41 41 39 36 31 22 16 17 21 23 25 21 28 38 54 61 63 63 73 67 59 52 43 35
9 11 7 6 12 32 28 5 4 3 12 15 18 10 15 11 13 31 54 38 39 40 35 30 28 27 24 26 28 31 31 28 29 26 27 29 24 23 20 14 12 10 14 26 40 52 60 65 61 61 61 52 45 38
15 17 8 9 9 7 11 14 3 10 15 10 19 23 20 11 10 28 36 40 34 31 29 29 27 23 22 23 24 25 30 30 27 27 28 28 28 28 30 28 20 11 6 13 24 25 25 30 45 49 47 39 32 26
Wind_Direction_850mb
314 318 318 320 320 321 319 317 316 317 321 324 322 322 318 292 296 299 291 291 273 252 282 277 275 245 261 259 267 309 339 4 337 23 354 316 297 321 298 294 329 320 293 247 200 226 266 356 328 259 319 310 322 338
314 320 317 318 318 319 317 316 316 318 324 321 320 323 316 301 301 296 288 292 292 260 273 295 286 274 264 267 263 274 271 272 317 327 3 299 293 292 295 308 340 323 316 288 311 270 278 293 245 291 324 324 337 312
314 312 313 314 315 316 318 318 317 320 325 316 316 319 315 311 302 281 288 288 290 286 304 286 292 285 215 311 272 227 245 230 205 249 304 290 282 272 299 299 292 275 332 322 310 330 280 294 4 358 13 350 339 332
311 312 314 314 315 316 317 316 319 324 318 316 315 310 307 301 293 285 281 284 280 274 278 284 311 298 286 266 256 242 247 261 253 233 225 255 271 226 264 282 285 267 314 322 303 307 331 355 4 1 343 348 351 16
311 314 315 315 315 315 316 319 321 320 318 315 314 312 307 306 298 290 286 286 268 225 292 292 309 342 338 244 254 220 223 239 212 183 214 240 250 255 278 290 266 3 312 343 312 310 330 323 326 2 351 353 349 30
313 316 316 316 318 319 321 320 320 320 321 318 315 303 295 299 304 309 319 337 264 202 277 291 317 301 340 277 207 221 220 235 239 223 237 255 250 257 354 281 268 313 313 315 286 318 316 318 348 36 8 353 24 38
313 316 316 318 319 320 321 323 323 324 325 320 314 305 295 287 274 247 250 253 137 171 254 289 302 293 317 206 213 218 228 242 251 264 242 246 272 193 204 266 290 317 322 335 353 354 338 7 11 31 13 27 36 51
317 319 321 323 323 324 325 325 325 327 327 322 314 303 292 280 270 275 337 219 176 221 253 284 279 316 197 193 217 208 206 221 238 256 273 241 263 199 263 264 303 330 341 345 360 1 12 27 24 24 31 38 47 42
317 319 322 323 326 327 328 330 329 331 331 325 319 318 311 88 179 286 299 216 213 209 257 231 267 269 304 3 271 189 192 193 231 241 251 182 298 216 234 269 306 340 355 333 348 18 27 32 26 23 31 33 44 46
317 319 321 324 327 329 331 333 333 337 342 335 330 303 168 119 310 291 255 209 194 225 242 246 210 267 309 310 290 60 190 200 208 239 293 88 259 249 259 281 302 313 322 343 352 16 17 24 32 42 50 42 43 47
315 318 321 324 328 327 339 345 342 349 354 1 351 318 317 291 308 255 232 189 200 243 228 237 215 213 239 190 229 229 202 243 332 251 226 293 288 237 201 185 299 338 343 13 15 23 40 48 43 40 36 36 38 41
312 318 321 323 324 326 336 327 337 337 335 321 301 304 309 284 237 259 239 196 195 231 214 206 225 205 240 216 168 318 146 38 251 339 287 271 256 181 195 186 203 84 83 74 36 49 46 55 49 48 42 36 31 31
313 316 318 321 316 323 329 333 333 327 326 338 276 255 241 224 243 218 220 254 236 222 241 259 244 210 186 205 120 84 88 235 334 51 234 236 230 183 188 178 175 168 118 112 80 51 49 42 35 42 46 44 46 48
312 315 316 315 314 311 327 332 334 334 331 292 252 251 207 208 234 208 206 229 321 304 297 293 242 216 176 145 148 132 231 77 22 2 240 250 197 190 188 174 169 179 153 134 127 104 71 51 54 49 46 41 48 53
313 317 308 299 303 316 322 322 323 312 275 251 248 242 227 229 236 245 268 275 302 324 345 303 234 208 236 155 200 123 69 258 199 232 232 197 169 174 201 179 159 169 162 170 151 121 110 96 92 70 53 49 58 60
319 331 317 309 310 308 315 313 314 264 241 240 236 259 261 287 276 281 303 308 329 326 338 304 244 160 222 158 127 215 151 220 246 219 235 175 172 164 213 199 188 186 175 159 169 136 126 130 110 87 57 50 61 64
315 322 324 324 314 313 322 304 231 230 240 235 246 245 259 278 269 282 300 301 314 319 203 187 232 272 340 169 199 182 206 214 203 199 186 196 207 233 222 216 201 191 197 186 156 149 138 153 132 102 73 66 62 63
307 320 328 331 327 334 334 218 246 243 242 248 246 270 271 275 287 293 297 303 294 268 262 237 186 171 226 215 245 232 216 210 197 183 222 213 204 207 210 203 185 181 204 190 194 167 144 158 140 96 87 87 82 72
315 317 325 323 319 323 295 253 238 263 253 269 276 278 283 287 294 299 302 304 298 283 249 216 215 192 229 242 247 226 209 193 204 224 190 208 226 231 214 215 217 195 193 184 195 184 164 70 84 110 104 115 102 82
315 323 315 310 297 298 270 258 246 265 262 267 279 283 294 289 302 302 304 302 301 271 224 217 196 226 230 253 278 280 240 234 237 217 219 223 231 230 214 201 202 194 199 191 195 191 187 176 152 133 108 96 103 99
320 330 303 305 299 243 260 271 248 247 272 267 278 326 313 294 289 291 300 341 251 223 227 262 268 284 286 269 258 275 269 254 243 225 243 230 222 207 200 230 210 202 200 194 194 199 198 196 177 160 133 111 109 107
320 320 319 328 246 242 254 247 251 296 306 284 293 287 257 289 308 306 317 264 221 43 3 340 327 310 302 297 284 262 267 260 257 236 239 236 223 207 215 208 201 204 212 211 200 199 198 194 188 185 176 156 149 132
328 319 292 248 248 244 263 264 248 258 280 302 310 319 279 289 271 289 261 345 54 352 344 341 335 333 331 307 287 272 272 253 227 221 224 221 213 225 227 219 212 222 208 213 208 200 194 191 191 190 192 190 182 176
321 266 255 278 243 268 292 275 288 275 323 354 319 293 286 272 294 257 240 50 350 349 346 346 354 345 337 347 338 290 262 225 225 229 243 226 211 218 223 228 221 210 213 210 209 202 194 195 196 194 194 191 189 193
287 248 210 269 261 260 264 336 26 4 277 305 266 262 272 274 298 14 72 338 347 356 356 350 346 353 350 353 354 319 255 244 239 240 236 223 221 222 215 213 215 215 207 209 200 196 194 197 196 195 195 197 197 196
265 231 194 236 260 224 308 328 294 308 316 282 274 299 338 333 261 62 17 343 339 342 355 3 350 344 344 349 4 350 288 236 231 226 230 237 234 220 196 195 195 201 193 195 194 205 199 199 193 195 197 198 203 202
265 278 241 242 266 290 297 287 291 258 254 264 314 353 319 324 353 43 4 0 353 356 355 13 17 29 24 5 20 34 30 152 187 194 193 191 195 204 204 212 212 217 209 203 207 212 204 200 196 199 199 204 209 210
253 277 245 283 295 278 264 248 259 246 255 292 322 290 276 308 35 348 348 355 3 11 11 17 32 34 31 30 34 46 86 86 101 146 166 175 187 198 210 212 219 232 225 218 209 211 209 212 203 199 204 207 204 204
252 251 283 277 272 254 237 218 228 233 262 297 40 312 25 59 10 8 4 6 20 29 25 30 28 29 39 47 42 46 46 54 74 83 86 82 116 110 209 226 226 220 212 214 224 219 208 217 210 211 211 208 198 193
264 275 262 262 246 246 235 215 244 238 265 273 271 269 97 89 38 31 30 30 28 30 34 34 28 29 29 36 48 53 53 49 45 47 54 48 31 358 333 305 271 248 227 214 216 211 219 214 206 201 198 196 190 187
286 288 257 247 266 270 290 299 291 279 276 277 287 260 175 153 44 28 31 37 41 34 35 39 39 34 34 36 36 39 38 37 40 39 38 32 10 360 2 343 309 287 233 212 198 206 214 216 204 192 193 191 187 187
246 233 272 281 286 314 324 5 341 45 53 64 32 92 101 85 49 22 23 40 44 44 43 47 53 59 53 50 50 53 47 37 34 35 46 54 45 32 16 1 339 305 226 213 219 211 201 191 189 193 185 182 182 182
275 288 268 272 285 305 313 303 212 101 64 61 32 43 58 71 75 19 18 34 38 35 40 47 53 55 50 50 57 67 64 60 53 50 47 47 47 47 55 62 64 73 97 176 197 213 228 204 183 180 174 170 168 167